TimeAKDT,TemperatureF,Dew PointF,Humidity,Sea Level PressureIn,VisibilityMPH,Wind Direction,Wind SpeedMPH,Gust SpeedMPH,PrecipitationIn,Events,Conditions,WindDirDegrees,DateUTC
12:53 AM,57.0,46.0,67,29.79,10.0,South,4.6,-,N/A,,Mostly Cloudy,170,2012-05-23 08:53:00
1:53 AM,57.0,45.0,64,29.81,10.0,SW,6.9,-,0.00,Rain,Light Rain,220,2012-05-23 09:53:00
2:53 AM,55.0,46.0,72,29.82,10.0,SSW,5.8,-,0.00,,Overcast,210,2012-05-23 10:53:00
3:53 AM,54.0,46.9,77,29.84,10.0,South,3.5,-,0.00,Rain,Light Rain,180,2012-05-23 11:53:00
4:53 AM,52.0,48.0,86,29.87,10.0,SSW,3.5,-,0.00,,Mostly Cloudy,210,2012-05-23 12:53:00
5:53 AM,53.1,48.0,83,29.88,10.0,SSW,3.5,-,N/A,,Mostly Cloudy,210,2012-05-23 13:53:00
6:53 AM,54.0,46.9,77,29.89,10.0,Calm,Calm,-,N/A,,Mostly Cloudy,0,2012-05-23 14:53:00
7:53 AM,55.0,46.0,72,29.90,10.0,WSW,5.8,-,N/A,,Mostly Cloudy,240,2012-05-23 15:53:00
8:53 AM,57.9,46.0,65,29.90,10.0,Calm,Calm,-,N/A,,Scattered Clouds,0,2012-05-23 16:53:00
9:53 AM,60.1,46.0,60,29.91,10.0,Calm,Calm,-,N/A,,Scattered Clouds,0,2012-05-23 17:53:00
10:53 AM,62.1,46.9,58,29.92,10.0,SSE,4.6,-,N/A,,Scattered Clouds,160,2012-05-23 18:53:00
11:53 AM,63.0,46.0,54,29.91,10.0,SSE,6.9,-,N/A,,Mostly Cloudy,160,2012-05-23 19:53:00
12:53 PM,66.0,45.0,47,29.91,10.0,North,6.9,-,N/A,,Mostly Cloudy,350,2012-05-23 20:53:00
1:53 PM,61.0,48.9,64,29.92,10.0,North,13.8,-,0.00,,Mostly Cloudy,360,2012-05-23 21:53:00
2:53 PM,61.0,48.0,62,29.94,10.0,North,9.2,-,0.00,Rain,Light Rain,350,2012-05-23 22:53:00
3:53 PM,61.0,50.0,67,29.94,10.0,North,5.8,-,0.04,,Mostly Cloudy,10,2012-05-23 23:53:00
4:53 PM,62.1,50.0,65,29.94,10.0,NNW,4.6,-,0.00,Rain,Light Rain,330,2012-05-24 00:53:00
5:53 PM,64.0,46.0,52,29.94,10.0,NW,3.5,-,0.00,,Mostly Cloudy,320,2012-05-24 01:53:00
6:53 PM,64.0,45.0,50,29.94,10.0,NW,3.5,-,N/A,,Mostly Cloudy,310,2012-05-24 02:53:00
7:53 PM,63.0,45.0,52,29.95,10.0,NW,5.8,-,N/A,,Mostly Cloudy,320,2012-05-24 03:53:00
8:53 PM,62.1,46.9,58,29.96,10.0,NNW,5.8,-,N/A,,Mostly Cloudy,330,2012-05-24 04:53:00
9:53 PM,61.0,46.0,58,29.97,10.0,Calm,Calm,-,N/A,,Mostly Cloudy,0,2012-05-24 05:53:00
10:53 PM,55.9,48.9,77,29.98,10.0,Calm,Calm,-,N/A,,Scattered Clouds,0,2012-05-24 06:53:00
11:53 PM,52.0,48.0,86,29.99,10.0,West,3.5,-,N/A,,Scattered Clouds,270,2012-05-24 07:53:00